Theta_e
323 323 324 324 324 324 324 324 323 323 323 322 323 321 321 322 322 323 323 322 323 323
316 317 313 310 310 310 309 307 307 307 309 312 315 318 319 318 318 321 322 322 323 322
304 304 304 304 304 303 303 302 303 303 304 304 305 306 308 310 314 315 318 320 320 320
301 301 301 301 300 300 300 300 300 300 301 302 302 303 304 304 305 305 306 307 307 307
299 299 299 298 298 298 298 298 298 299 299 299 300 300 300 300 301 300 300 302 302 303
296 296 295 295 295 296 296 297 297 297 298 298 299 299 300 299 299 299 300 300 299 299
295 294 294 293 293 294 294 294 295 296 296 297 297 298 298 299 299 299 299 300 301 301
293 292 291 291 291 291 291 292 293 292 293 294 294 295 294 295 296 296 295 296 297 299
290 289 289 289 289 289 289 290 291 291 292 292 291 289 292 292 292 293 293 293 294 295
288 287 287 287 286 286 287 287 288 289 290 290 291 291 291 291 292 292 293 293 293 293
286 286 285 285 285 285 285 285 286 287 289 289 290 290 291 290 292 292 293 293 292 292
284 283 283 283 283 283 283 284 284 285 286 287 289 290 290 290 291 290 290 291 292 291
283 282 282 282 281 281 282 281 282 283 285 286 287 289 290 290 290 288 289 289 289 287
280 279 280 280 279 279 280 280 281 282 285 287 287 288 288 289 288 288 287 286 287 288
Wind_Speed
9 6 6 6 5 4 4 3 2 6 7 8 9 9 7 6 7 9 9 14 12 10
7 7 6 5 4 2 2 0 2 4 5 6 7 9 10 8 10 11 11 12 12 12
8 6 6 4 4 3 2 0 3 3 4 4 6 6 7 7 9 9 9 9 13 13
7 6 5 5 4 2 0 1 2 3 4 5 5 5 5 6 7 8 8 9 10 11
7 6 5 4 3 2 2 3 4 4 5 5 5 5 5 5 5 6 7 8 9 10
6 5 5 4 3 2 2 3 4 4 5 5 5 5 5 5 6 6 6 7 8 9
6 5 4 4 2 0 2 4 4 4 5 5 6 6 6 6 7 7 8 9 10 11
7 5 4 4 3 1 3 3 4 4 4 5 4 4 6 7 7 8 9 9 10 11
7 6 4 3 1 2 3 4 5 5 5 5 4 5 6 7 7 8 8 8 9 9
6 5 3 2 2 4 4 4 5 5 5 6 6 7 8 9 6 7 8 8 8 8
6 4 3 4 5 5 4 4 5 5 6 6 5 8 10 10 8 6 8 8 9 9
6 5 5 7 6 4 4 4 4 4 5 6 6 8 10 10 7 6 8 7 9 10
6 5 7 6 4 3 4 4 4 5 5 6 6 8 9 9 5 7 6 7 7 10
6 5 5 3 2 3 3 3 4 4 4 5 4 6 10 12 6 5 7 9 7 6
Wind_Direction
198 202 206 206 211 222 231 246 264 253 251 254 258 259 264 261 262 267 256 255 253 258
147 153 151 138 140 150 125 41 301 286 277 278 277 276 270 265 265 262 264 261 262 266
124 119 118 122 130 131 123 261 277 282 292 297 282 278 277 276 275 275 277 277 274 273
119 121 124 131 130 122 145 328 318 315 304 288 285 289 286 283 287 286 293 295 293 294
130 133 131 117 96 50 353 328 318 301 288 283 282 284 284 287 295 298 299 298 300 299
130 129 120 99 66 18 320 295 282 277 283 285 282 283 283 284 288 288 289 292 292 292
147 139 133 140 148 233 295 282 281 285 286 290 300 298 302 308 314 314 304 298 292 290
151 145 159 134 94 353 297 288 282 288 289 293 302 319 331 323 320 314 309 302 296 294
166 159 148 114 89 287 276 281 282 280 283 294 286 290 318 320 312 302 297 295 292 291
165 141 122 134 232 249 258 278 278 278 280 283 285 294 305 300 304 295 293 293 295 292
154 141 154 214 224 235 239 254 266 265 270 281 282 291 298 297 299 290 292 291 292 292
155 168 199 222 216 229 241 254 263 271 278 281 290 298 300 304 298 287 283 282 289 294
166 189 217 221 217 227 258 267 275 281 277 271 287 294 304 319 302 294 289 283 281 276
173 193 221 215 237 254 277 285 283 283 288 285 295 324 319 312 309 301 307 302 297 296